Time,TemperatureF,DewpointF,PressureIn,WindDirection,WindDirectionDegrees,WindSpeedMPH,WindSpeedGustMPH,Humidity,HourlyPrecipIn,Conditions,Clouds,dailyrainin,SoftwareType,DateUTC
2013-09-19 00:01:00,52.0,49.2,30.18,NE,45,0.0,1.0,90,0.00,,---,0.00,VWS V14.01,2013-09-19 04:01:00,
2013-09-19 00:02:00,52.0,49.2,30.18,NE,45,1.0,1.0,90,0.00,,---,0.00,VWS V14.01,2013-09-19 04:02:00,
2013-09-19 00:03:00,52.0,49.2,30.18,ENE,68,1.0,1.0,90,0.00,,---,0.00,VWS V14.01,2013-09-19 04:03:00,
2013-09-19 00:08:00,52.0,49.2,30.18,ESE,112,1.0,2.0,90,0.00,,---,0.00,VWS V14.01,2013-09-19 04:08:00,
2013-09-19 00:09:00,52.0,49.2,30.18,East,90,1.0,2.0,90,0.00,,---,0.00,VWS V14.01,2013-09-19 04:09:00,
2013-09-19 00:14:00,52.0,49.5,30.18,East,90,1.0,3.0,91,0.00,,---,0.00,VWS V14.01,2013-09-19 04:14:00,
2013-09-19 00:19:00,52.0,49.5,30.18,ENE,68,2.0,3.0,91,0.00,,---,0.00,VWS V14.01,2013-09-19 04:19:00,
2013-09-19 00:25:00,51.0,48.5,30.18,East,90,1.0,2.0,91,0.00,,---,0.00,VWS V14.01,2013-09-19 04:25:00,
2013-09-19 00:30:00,51.0,48.5,30.18,East,90,0.0,2.0,91,0.00,,---,0.00,VWS V14.01,2013-09-19 04:30:00,
2013-09-19 00:35:00,51.0,48.5,30.18,East,90,0.0,2.0,91,0.00,,---,0.00,VWS V14.01,2013-09-19 04:35:00,
2013-09-19 00:40:00,51.0,48.5,30.17,East,90,0.0,1.0,91,0.00,,---,0.00,VWS V14.01,2013-09-19 04:40:00,
2013-09-19 00:45:00,51.0,48.8,30.17,SE,135,1.0,1.0,92,0.00,,---,0.00,VWS V14.01,2013-09-19 04:45:00,
2013-09-19 00:50:00,51.0,48.8,30.17,ESE,112,1.0,1.0,92,0.00,,---,0.00,VWS V14.01,2013-09-19 04:50:00,
2013-09-19 00:55:00,51.0,48.8,30.17,ESE,112,1.0,1.0,92,0.00,,---,0.00,VWS V14.01,2013-09-19 04:55:00,
2013-09-19 01:00:00,51.0,48.8,30.17,NNE,22,1.0,1.0,92,0.00,,---,0.00,VWS V14.01,2013-09-19 05:00:00,
2013-09-19 01:05:00,50.0,47.8,30.17,NNE,22,0.0,1.0,92,0.00,,---,0.00,VWS V14.01,2013-09-19 05:05:00,
2013-09-19 01:11:00,50.0,48.1,30.17,NNE,22,0.0,1.0,93,0.00,,---,0.00,VWS V14.01,2013-09-19 05:11:00,
2013-09-19 01:16:00,50.0,48.1,30.17,ENE,68,0.0,3.0,93,0.00,,---,0.00,VWS V14.01,2013-09-19 05:16:00,
2013-09-19 01:21:00,50.0,48.1,30.17,East,90,1.0,1.0,93,0.00,,---,0.00,VWS V14.01,2013-09-19 05:21:00,
2013-09-19 01:26:00,50.0,48.1,30.17,SE,135,1.0,2.0,93,0.00,,---,0.00,VWS V14.01,2013-09-19 05:26:00,
2013-09-19 01:31:00,50.0,48.1,30.17,SE,135,1.0,2.0,93,0.00,,---,0.00,VWS V14.01,2013-09-19 05:31:00,
2013-09-19 01:36:00,50.0,48.1,30.17,ESE,112,2.0,3.0,93,0.00,,---,0.00,VWS V14.01,2013-09-19 05:36:00,
2013-09-19 01:41:00,50.0,48.1,30.17,ESE,112,1.0,3.0,93,0.00,,---,0.00,VWS V14.01,2013-09-19 05:41:00,
2013-09-19 01:46:00,50.0,48.1,30.18,SE,135,1.0,3.0,93,0.00,,---,0.00,VWS V14.01,2013-09-19 05:46:00,
2013-09-19 01:52:00,50.0,48.1,30.18,ESE,112,1.0,3.0,93,0.00,,---,0.00,VWS V14.01,2013-09-19 05:52:00,
2013-09-19 01:57:00,50.0,47.8,30.18,SE,135,1.0,3.0,92,0.00,,---,0.00,VWS V14.01,2013-09-19 05:57:00,
2013-09-19 02:02:00,50.0,47.8,30.18,ESE,112,1.0,2.0,92,0.00,,---,0.00,VWS V14.01,2013-09-19 06:02:00,
2013-09-19 02:07:00,50.0,47.8,30.18,East,90,1.0,3.0,92,0.00,,---,0.00,VWS V14.01,2013-09-19 06:07:00,
2013-09-19 02:12:00,50.0,47.8,30.17,SE,135,2.0,3.0,92,0.00,,---,0.00,VWS V14.01,2013-09-19 06:12:00,
2013-09-19 02:17:00,50.0,47.8,30.17,SE,135,1.0,3.0,92,0.00,,---,0.00,VWS V14.01,2013-09-19 06:17:00,
2013-09-19 02:22:00,50.0,47.5,30.17,East,90,1.0,2.0,91,0.00,,---,0.00,VWS V14.01,2013-09-19 06:22:00,
2013-09-19 02:27:00,49.0,46.5,30.17,East,90,3.0,5.0,91,0.00,,---,0.00,VWS V14.01,2013-09-19 06:27:00,
2013-09-19 02:32:00,49.0,46.8,30.17,East,90,1.0,5.0,92,0.00,,---,0.00,VWS V14.01,2013-09-19 06:32:00,
2013-09-19 02:38:00,49.0,46.8,30.17,East,90,0.0,5.0,92,0.00,,---,0.00,VWS V14.01,2013-09-19 06:38:00,
2013-09-19 02:43:00,49.0,46.8,30.17,SE,135,1.0,2.0,92,0.00,,---,0.00,VWS V14.01,2013-09-19 06:43:00,
2013-09-19 02:48:00,49.0,46.8,30.17,East,90,0.0,2.0,92,0.00,,---,0.00,VWS V14.01,2013-09-19 06:48:00,
2013-09-19 02:53:00,49.0,46.8,30.17,NE,45,0.0,2.0,92,0.00,,---,0.00,VWS V14.01,2013-09-19 06:53:00,
2013-09-19 02:58:00,49.0,46.8,30.17,ENE,68,0.0,2.0,92,0.00,,---,0.00,VWS V14.01,2013-09-19 06:58:00,
2013-09-19 03:03:00,49.0,46.8,30.17,ESE,112,0.0,1.0,92,0.00,,---,0.00,VWS V14.01,2013-09-19 07:03:00,
2013-09-19 03:08:00,48.0,45.8,30.17,SW,225,0.0,1.0,92,0.00,,---,0.00,VWS V14.01,2013-09-19 07:08:00,
2013-09-19 03:13:00,48.0,46.1,30.17,SW,225,1.0,1.0,93,0.00,,---,0.00,VWS V14.01,2013-09-19 07:13:00,
2013-09-19 03:18:00,48.0,46.1,30.18,South,180,0.0,1.0,93,0.00,,---,0.00,VWS V14.01,2013-09-19 07:18:00,
2013-09-19 03:23:00,48.0,46.1,30.18,SE,135,1.0,2.0,93,0.00,,---,0.00,VWS V14.01,2013-09-19 07:23:00,
2013-09-19 03:28:00,48.0,46.1,30.18,SE,135,1.0,3.0,93,0.00,,---,0.00,VWS V14.01,2013-09-19 07:28:00,
2013-09-19 03:34:00,48.0,46.1,30.18,SE,135,0.0,3.0,93,0.00,,---,0.00,VWS V14.01,2013-09-19 07:34:00,
2013-09-19 03:39:00,48.0,46.1,30.17,SE,135,0.0,3.0,93,0.00,,---,0.00,VWS V14.01,2013-09-19 07:39:00,
2013-09-19 03:44:00,48.0,46.1,30.18,SE,135,0.0,1.0,93,0.00,,---,0.00,VWS V14.01,2013-09-19 07:44:00,
2013-09-19 03:49:00,48.0,46.1,30.18,SE,135,0.0,1.0,93,0.00,,---,0.00,VWS V14.01,2013-09-19 07:49:00,
2013-09-19 03:54:00,47.0,45.1,30.17,SE,135,0.0,1.0,93,0.00,,---,0.00,VWS V14.01,2013-09-19 07:54:00,
2013-09-19 03:59:00,47.0,45.1,30.17,SE,135,0.0,2.0,93,0.00,,---,0.00,VWS V14.01,2013-09-19 07:59:00,
2013-09-19 04:04:00,47.0,45.4,30.17,SE,135,1.0,3.0,94,0.00,,---,0.00,VWS V14.01,2013-09-19 08:04:00,
2013-09-19 04:09:00,47.0,45.4,30.17,SE,135,1.0,3.0,94,0.00,,---,0.00,VWS V14.01,2013-09-19 08:09:00,
2013-09-19 04:14:00,47.0,45.4,30.17,SE,135,0.0,3.0,94,0.00,,---,0.00,VWS V14.01,2013-09-19 08:14:00,
2013-09-19 04:19:00,47.0,45.4,30.17,SE,135,1.0,3.0,94,0.00,,---,0.00,VWS V14.01,2013-09-19 08:19:00,
2013-09-19 04:24:00,47.0,45.7,30.17,SE,135,1.0,2.0,95,0.00,,---,0.00,VWS V14.01,2013-09-19 08:24:00,
2013-09-19 04:29:00,47.0,45.7,30.16,SSE,158,1.0,2.0,95,0.00,,---,0.00,VWS V14.01,2013-09-19 08:29:00,
2013-09-19 04:34:00,47.0,45.7,30.16,SE,135,1.0,2.0,95,0.00,,---,0.00,VWS V14.01,2013-09-19 08:34:00,
2013-09-19 04:39:00,47.0,45.7,30.16,SE,135,0.0,2.0,95,0.00,,---,0.00,VWS V14.01,2013-09-19 08:39:00,
2013-09-19 04:45:00,47.0,45.7,30.16,SSE,158,1.0,2.0,95,0.00,,---,0.00,VWS V14.01,2013-09-19 08:45:00,
2013-09-19 04:50:00,47.0,45.7,30.16,ESE,112,0.0,2.0,95,0.00,,---,0.00,VWS V14.01,2013-09-19 08:50:00,
2013-09-19 04:55:00,47.0,45.7,30.16,ENE,68,0.0,2.0,95,0.00,,---,0.00,VWS V14.01,2013-09-19 08:55:00,
2013-09-19 05:00:00,47.0,45.7,30.16,North,0,0.0,1.0,95,0.00,,---,0.00,VWS V14.01,2013-09-19 09:00:00,
2013-09-19 05:05:00,47.0,45.7,30.16,North,0,0.0,1.0,95,0.00,,---,0.00,VWS V14.01,2013-09-19 09:05:00,
2013-09-19 05:10:00,46.0,44.7,30.16,North,0,0.0,1.0,95,0.00,,---,0.00,VWS V14.01,2013-09-19 09:10:00,
2013-09-19 05:15:00,46.0,44.7,30.17,NNE,22,1.0,1.0,95,0.00,,---,0.00,VWS V14.01,2013-09-19 09:15:00,
2013-09-19 05:20:00,47.0,45.9,30.16,ENE,68,1.0,1.0,96,0.00,,---,0.00,VWS V14.01,2013-09-19 09:20:00,
2013-09-19 05:25:00,47.0,45.9,30.16,ESE,112,2.0,3.0,96,0.00,,---,0.00,VWS V14.01,2013-09-19 09:25:00,
2013-09-19 05:30:00,47.0,45.9,30.16,SE,135,2.0,3.0,96,0.00,,---,0.00,VWS V14.01,2013-09-19 09:30:00,
2013-09-19 05:35:00,47.0,45.9,30.16,SE,135,0.0,3.0,96,0.00,,---,0.00,VWS V14.01,2013-09-19 09:35:00,
2013-09-19 05:40:00,47.0,45.9,30.16,ESE,112,0.0,1.0,96,0.00,,---,0.00,VWS V14.01,2013-09-19 09:40:00,
2013-09-19 05:45:00,47.0,45.9,30.17,ESE,112,1.0,1.0,96,0.00,,---,0.00,VWS V14.01,2013-09-19 09:45:00,
2013-09-19 05:51:00,47.0,45.9,30.16,East,90,1.0,2.0,96,0.00,,---,0.00,VWS V14.01,2013-09-19 09:51:00,
2013-09-19 05:56:00,47.0,45.9,30.16,ESE,112,0.0,2.0,96,0.00,,---,0.00,VWS V14.01,2013-09-19 09:56:00,
2013-09-19 06:01:00,47.0,45.9,30.16,East,90,0.0,2.0,96,0.00,,---,0.00,VWS V14.01,2013-09-19 10:01:00,
2013-09-19 06:06:00,48.0,46.9,30.16,SE,135,0.0,2.0,96,0.00,,---,0.00,VWS V14.01,2013-09-19 10:06:00,
2013-09-19 06:11:00,48.0,46.9,30.16,SE,135,0.0,2.0,96,0.00,,---,0.00,VWS V14.01,2013-09-19 10:11:00,
2013-09-19 06:16:00,48.0,46.9,30.16,NNE,22,1.0,2.0,96,0.00,,---,0.00,VWS V14.01,2013-09-19 10:16:00,
2013-09-19 06:21:00,48.0,46.9,30.16,NNE,22,0.0,1.0,96,0.00,,---,0.00,VWS V14.01,2013-09-19 10:21:00,
2013-09-19 06:26:00,48.0,46.9,30.16,NNE,22,0.0,1.0,96,0.00,,---,0.00,VWS V14.01,2013-09-19 10:26:00,
2013-09-19 06:31:00,48.0,46.9,30.16,SSE,158,1.0,2.0,96,0.00,,---,0.00,VWS V14.01,2013-09-19 10:31:00,
2013-09-19 06:36:00,48.0,46.9,30.16,ESE,112,0.0,2.0,96,0.00,,---,0.00,VWS V14.01,2013-09-19 10:36:00,
2013-09-19 06:41:00,49.0,47.9,30.16,ESE,112,0.0,1.0,96,0.00,,---,0.00,VWS V14.01,2013-09-19 10:41:00,
2013-09-19 06:46:00,49.0,47.9,30.16,ESE,112,0.0,1.0,96,0.00,,---,0.00,VWS V14.01,2013-09-19 10:46:00,
2013-09-19 06:51:00,49.0,47.9,30.16,ESE,112,0.0,1.0,96,0.00,,---,0.00,VWS V14.01,2013-09-19 10:51:00,
2013-09-19 06:56:00,49.0,47.9,30.16,ESE,112,1.0,1.0,96,0.00,,---,0.00,VWS V14.01,2013-09-19 10:56:00,
2013-09-19 07:02:00,49.0,47.9,30.16,ESE,112,1.0,1.0,96,0.00,,---,0.00,VWS V14.01,2013-09-19 11:02:00,
2013-09-19 07:07:00,49.0,47.9,30.16,East,90,1.0,3.0,96,0.00,,---,0.00,VWS V14.01,2013-09-19 11:07:00,
2013-09-19 07:12:00,49.0,47.6,30.16,ENE,68,3.0,4.0,95,0.00,,---,0.00,VWS V14.01,2013-09-19 11:12:00,
2013-09-19 07:17:00,50.0,48.6,30.16,ENE,68,4.0,5.0,95,0.00,,---,0.00,VWS V14.01,2013-09-19 11:17:00,
2013-09-19 07:22:00,50.0,48.6,30.16,ENE,68,3.0,4.0,95,0.00,,---,0.00,VWS V14.01,2013-09-19 11:22:00,
2013-09-19 07:27:00,50.0,48.6,30.16,South,180,1.0,4.0,95,0.00,,---,0.00,VWS V14.01,2013-09-19 11:27:00,
2013-09-19 07:32:00,50.0,48.3,30.17,ENE,68,3.0,4.0,94,0.00,,---,0.00,VWS V14.01,2013-09-19 11:32:00,
2013-09-19 07:37:00,50.0,48.3,30.16,East,90,0.0,4.0,94,0.00,,---,0.00,VWS V14.01,2013-09-19 11:37:00,
2013-09-19 07:42:00,51.0,49.3,30.16,ENE,68,2.0,3.0,94,0.00,,---,0.00,VWS V14.01,2013-09-19 11:42:00,
2013-09-19 07:47:00,51.0,49.3,30.17,ENE,68,0.0,3.0,94,0.00,,---,0.00,VWS V14.01,2013-09-19 11:47:00,
2013-09-19 07:52:00,51.0,49.3,30.16,NE,45,0.0,3.0,94,0.00,,---,0.00,VWS V14.01,2013-09-19 11:52:00,
2013-09-19 07:58:00,51.0,49.3,30.17,NE,45,1.0,3.0,94,0.00,,---,0.00,VWS V14.01,2013-09-19 11:58:00,
2013-09-19 08:03:00,51.0,49.3,30.17,NE,45,0.0,1.0,94,0.00,,---,0.00,VWS V14.01,2013-09-19 12:03:00,
2013-09-19 08:08:00,51.0,49.3,30.17,NE,45,1.0,1.0,94,0.00,,---,0.00,VWS V14.01,2013-09-19 12:08:00,
2013-09-19 08:13:00,52.0,50.0,30.17,East,90,2.0,2.0,93,0.00,,---,0.00,VWS V14.01,2013-09-19 12:13:00,
2013-09-19 08:18:00,52.0,50.0,30.17,ENE,68,1.0,2.0,93,0.00,,---,0.00,VWS V14.01,2013-09-19 12:18:00,
2013-09-19 08:23:00,52.0,50.0,30.17,ENE,68,1.0,1.0,93,0.00,,---,0.00,VWS V14.01,2013-09-19 12:23:00,
2013-09-19 08:29:00,52.0,50.0,30.17,NE,45,0.0,3.0,93,0.00,,---,0.00,VWS V14.01,2013-09-19 12:29:00,
2013-09-19 08:34:00,53.0,51.0,30.17,ENE,68,1.0,3.0,93,0.00,,---,0.00,VWS V14.01,2013-09-19 12:34:00,
2013-09-19 08:39:00,53.0,50.7,30.17,ENE,68,1.0,3.0,92,0.00,,---,0.00,VWS V14.01,2013-09-19 12:39:00,
2013-09-19 08:44:00,53.0,50.7,30.17,ESE,112,2.0,3.0,92,0.00,,---,0.00,VWS V14.01,2013-09-19 12:44:00,
2013-09-19 08:49:00,54.0,51.4,30.17,East,90,3.0,4.0,91,0.00,,---,0.00,VWS V14.01,2013-09-19 12:49:00,
2013-09-19 08:54:00,54.0,51.4,30.17,ENE,68,0.0,4.0,91,0.00,,---,0.00,VWS V14.01,2013-09-19 12:54:00,
2013-09-19 08:59:00,54.0,51.1,30.17,East,90,0.0,4.0,90,0.00,,---,0.00,VWS V14.01,2013-09-19 12:59:00,
2013-09-19 09:04:00,55.0,52.1,30.17,ESE,112,0.0,3.0,90,0.00,,---,0.00,VWS V14.01,2013-09-19 13:04:00,
2013-09-19 09:09:00,55.0,51.8,30.18,SSE,158,0.0,3.0,89,0.00,,---,0.00,VWS V14.01,2013-09-19 13:09:00,
2013-09-19 09:14:00,56.0,52.5,30.18,SSW,202,1.0,3.0,88,0.00,,---,0.00,VWS V14.01,2013-09-19 13:14:00,
2013-09-19 09:19:00,56.0,52.2,30.18,SSE,158,1.0,5.0,87,0.00,,---,0.00,VWS V14.01,2013-09-19 13:19:00,
2013-09-19 09:24:00,57.0,52.9,30.18,South,180,5.0,5.0,86,0.00,,---,0.00,VWS V14.01,2013-09-19 13:24:00,
2013-09-19 09:29:00,57.0,52.2,30.18,SSE,158,1.0,6.0,84,0.00,,---,0.00,VWS V14.01,2013-09-19 13:29:00,
2013-09-19 09:35:00,58.0,53.2,30.18,South,180,4.0,6.0,84,0.00,,---,0.00,VWS V14.01,2013-09-19 13:35:00,
2013-09-19 09:40:00,58.0,52.9,30.18,WSW,248,3.0,4.0,83,0.00,,---,0.00,VWS V14.01,2013-09-19 13:40:00,
2013-09-19 09:45:00,58.0,52.9,30.18,South,180,3.0,5.0,83,0.00,,---,0.00,VWS V14.01,2013-09-19 13:45:00,
2013-09-19 09:50:00,59.0,53.5,30.18,South,180,3.0,6.0,82,0.00,,---,0.00,VWS V14.01,2013-09-19 13:50:00,
2013-09-19 09:55:00,60.0,54.5,30.19,South,180,2.0,6.0,82,0.00,,---,0.00,VWS V14.01,2013-09-19 13:55:00,
2013-09-19 10:00:00,61.0,55.1,30.18,SSW,202,2.0,3.0,81,0.00,,---,0.00,VWS V14.01,2013-09-19 14:00:00,
2013-09-19 10:05:00,61.0,54.8,30.18,SSW,202,6.0,7.0,80,0.00,,---,0.00,VWS V14.01,2013-09-19 14:05:00,
2013-09-19 10:10:00,61.0,54.5,30.18,SSW,202,4.0,8.0,79,0.00,,---,0.00,VWS V14.01,2013-09-19 14:10:00,
2013-09-19 10:15:00,62.0,55.4,30.18,South,180,5.0,8.0,79,0.00,,---,0.00,VWS V14.01,2013-09-19 14:15:00,
2013-09-19 10:20:00,62.0,55.1,30.18,SSW,202,5.0,6.0,78,0.00,,---,0.00,VWS V14.01,2013-09-19 14:20:00,
2013-09-19 10:26:00,63.0,55.7,30.18,SW,225,5.0,6.0,77,0.00,,---,0.00,VWS V14.01,2013-09-19 14:26:00,
2013-09-19 10:31:00,63.0,55.7,30.18,SW,225,4.0,7.0,77,0.00,,---,0.00,VWS V14.01,2013-09-19 14:31:00,
2013-09-19 10:36:00,64.0,56.7,30.17,West,270,9.0,10.0,77,0.00,,---,0.00,VWS V14.01,2013-09-19 14:36:00,
2013-09-19 10:41:00,64.0,55.9,30.17,WSW,248,6.0,6.0,75,0.00,,---,0.00,VWS V14.01,2013-09-19 14:41:00,
2013-09-19 10:46:00,65.0,56.2,30.17,West,270,4.0,8.0,73,0.00,,---,0.00,VWS V14.01,2013-09-19 14:46:00,
2013-09-19 10:51:00,66.0,56.7,30.17,WSW,248,6.0,12.0,72,0.00,,---,0.00,VWS V14.01,2013-09-19 14:51:00,
2013-09-19 10:57:00,66.0,56.0,30.17,SSW,202,5.0,12.0,70,0.00,,---,0.00,VWS V14.01,2013-09-19 14:57:00,
2013-09-19 11:02:00,66.0,56.3,30.16,WSW,248,3.0,13.0,71,0.00,,---,0.00,VWS V14.01,2013-09-19 15:02:00,
2013-09-19 11:07:00,66.0,56.0,30.16,WSW,248,3.0,13.0,70,0.00,,---,0.00,VWS V14.01,2013-09-19 15:07:00,
2013-09-19 11:12:00,66.0,56.0,30.16,WSW,248,5.0,13.0,70,0.00,,---,0.00,VWS V14.01,2013-09-19 15:12:00,
2013-09-19 11:17:00,66.0,56.0,30.16,SSE,158,6.0,13.0,70,0.00,,---,0.00,VWS V14.01,2013-09-19 15:17:00,
2013-09-19 11:22:00,66.0,55.5,30.16,SW,225,6.0,11.0,69,0.00,,---,0.00,VWS V14.01,2013-09-19 15:22:00,
2013-09-19 11:27:00,66.0,56.0,30.16,SE,135,5.0,11.0,70,0.00,,---,0.00,VWS V14.01,2013-09-19 15:27:00,
2013-09-19 11:32:00,67.0,56.5,30.16,WSW,248,5.0,11.0,69,0.00,,---,0.00,VWS V14.01,2013-09-19 15:32:00,
2013-09-19 11:37:00,67.0,56.5,30.16,WSW,248,8.0,11.0,69,0.00,,---,0.00,VWS V14.01,2013-09-19 15:37:00,
2013-09-19 11:42:00,68.0,57.1,30.16,SSW,202,3.0,8.0,68,0.00,,---,0.00,VWS V14.01,2013-09-19 15:42:00,
2013-09-19 11:47:00,67.0,55.3,30.16,WSW,248,6.0,10.0,66,0.00,,---,0.00,VWS V14.01,2013-09-19 15:47:00,
2013-09-19 11:53:00,67.0,55.7,30.16,West,270,5.0,11.0,67,0.00,,---,0.00,VWS V14.01,2013-09-19 15:53:00,
2013-09-19 11:58:00,66.0,55.2,30.16,WSW,248,6.0,11.0,68,0.00,,---,0.00,VWS V14.01,2013-09-19 15:58:00,
2013-09-19 12:03:00,67.0,56.5,30.16,South,180,4.0,6.0,69,0.00,,---,0.00,VWS V14.01,2013-09-19 16:03:00,
2013-09-19 12:08:00,67.0,56.1,30.16,SW,225,5.0,10.0,68,0.00,,---,0.00,VWS V14.01,2013-09-19 16:08:00,
2013-09-19 12:13:00,67.0,55.7,30.16,South,180,3.0,11.0,67,0.00,,---,0.00,VWS V14.01,2013-09-19 16:13:00,
2013-09-19 12:18:00,67.0,55.7,30.16,SSW,202,7.0,11.0,67,0.00,,---,0.00,VWS V14.01,2013-09-19 16:18:00,
2013-09-19 12:23:00,68.0,56.7,30.15,South,180,5.0,7.0,67,0.00,,---,0.00,VWS V14.01,2013-09-19 16:23:00,
2013-09-19 12:28:00,69.0,57.2,30.15,SW,225,5.0,8.0,66,0.00,,---,0.00,VWS V14.01,2013-09-19 16:28:00,
2013-09-19 12:33:00,69.0,55.9,30.14,South,180,6.0,10.0,63,0.00,,---,0.00,VWS V14.01,2013-09-19 16:33:00,
2013-09-19 12:38:00,69.0,55.9,30.14,South,180,6.0,10.0,63,0.00,,---,0.00,VWS V14.01,2013-09-19 16:38:00,
2013-09-19 12:43:00,69.0,55.5,30.14,ESE,112,4.0,7.0,62,0.00,,---,0.00,VWS V14.01,2013-09-19 16:43:00,
2013-09-19 12:48:00,69.0,55.5,30.13,South,180,4.0,11.0,62,0.00,,---,0.00,VWS V14.01,2013-09-19 16:48:00,
2013-09-19 12:54:00,69.0,56.3,30.14,SSW,202,6.0,11.0,64,0.00,,---,0.00,VWS V14.01,2013-09-19 16:54:00,
2013-09-19 12:59:00,69.0,55.9,30.14,South,180,5.0,11.0,63,0.00,,---,0.00,VWS V14.01,2013-09-19 16:59:00,
2013-09-19 13:04:00,70.0,56.4,30.13,SSW,202,5.0,8.0,62,0.00,,---,0.00,VWS V14.01,2013-09-19 17:04:00,
2013-09-19 13:09:00,69.0,55.5,30.13,SE,135,3.0,9.0,62,0.00,,---,0.00,VWS V14.01,2013-09-19 17:09:00,
2013-09-19 13:14:00,70.0,56.4,30.13,SSE,158,6.0,10.0,62,0.00,,---,0.00,VWS V14.01,2013-09-19 17:14:00,
2013-09-19 13:19:00,71.0,57.8,30.13,SW,225,3.0,10.0,63,0.00,,---,0.00,VWS V14.01,2013-09-19 17:19:00,
2013-09-19 13:24:00,71.0,56.9,30.12,SSW,202,8.0,9.0,61,0.00,,---,0.00,VWS V14.01,2013-09-19 17:24:00,
2013-09-19 13:29:00,71.0,56.0,30.12,South,180,3.0,9.0,59,0.00,,---,0.00,VWS V14.01,2013-09-19 17:29:00,
2013-09-19 13:34:00,72.0,56.4,30.12,SSW,202,5.0,9.0,58,0.00,,---,0.00,VWS V14.01,2013-09-19 17:34:00,
2013-09-19 13:39:00,72.0,56.9,30.12,SW,225,8.0,10.0,59,0.00,,---,0.00,VWS V14.01,2013-09-19 17:39:00,
2013-09-19 13:44:00,71.0,56.0,30.12,SSE,158,3.0,9.0,59,0.00,,---,0.00,VWS V14.01,2013-09-19 17:44:00,
2013-09-19 13:50:00,71.0,56.0,30.12,SE,135,3.0,9.0,59,0.00,,---,0.00,VWS V14.01,2013-09-19 17:50:00,
2013-09-19 13:55:00,71.0,55.5,30.12,SSE,158,5.0,11.0,58,0.00,,---,0.00,VWS V14.01,2013-09-19 17:55:00,
2013-09-19 14:00:00,72.0,56.0,30.12,SSE,158,4.0,5.0,57,0.00,,---,0.00,VWS V14.01,2013-09-19 18:00:00,
2013-09-19 14:05:00,73.0,56.4,30.12,WSW,248,4.0,11.0,56,0.00,,---,0.00,VWS V14.01,2013-09-19 18:05:00,
2013-09-19 14:10:00,72.0,54.0,30.11,South,180,6.0,11.0,53,0.00,,---,0.00,VWS V14.01,2013-09-19 18:10:00,
2013-09-19 14:15:00,72.0,55.5,30.11,SW,225,4.0,11.0,56,0.00,,---,0.00,VWS V14.01,2013-09-19 18:15:00,
2013-09-19 14:20:00,72.0,55.0,30.11,SW,225,5.0,5.0,55,0.00,,---,0.00,VWS V14.01,2013-09-19 18:20:00,
2013-09-19 14:25:00,73.0,57.4,30.11,SSW,202,7.0,10.0,58,0.00,,---,0.00,VWS V14.01,2013-09-19 18:25:00,
2013-09-19 14:30:00,72.0,54.5,30.11,South,180,3.0,10.0,54,0.00,,---,0.00,VWS V14.01,2013-09-19 18:30:00,
2013-09-19 14:35:00,73.0,56.4,30.11,ENE,68,1.0,10.0,56,0.00,,---,0.00,VWS V14.01,2013-09-19 18:35:00,
2013-09-19 14:40:00,73.0,56.4,30.10,WSW,248,3.0,8.0,56,0.00,,---,0.00,VWS V14.01,2013-09-19 18:40:00,
2013-09-19 14:46:00,73.0,54.9,30.11,WSW,248,8.0,10.0,53,0.00,,---,0.00,VWS V14.01,2013-09-19 18:46:00,
2013-09-19 14:51:00,73.0,53.8,30.11,SSW,202,3.0,10.0,51,0.00,,---,0.00,VWS V14.01,2013-09-19 18:51:00,
2013-09-19 14:56:00,73.0,52.7,30.11,WSW,248,10.0,11.0,49,0.00,,---,0.00,VWS V14.01,2013-09-19 18:56:00,
2013-09-19 15:01:00,74.0,54.7,30.10,WSW,248,5.0,7.0,51,0.00,,---,0.00,VWS V14.01,2013-09-19 19:01:00,
2013-09-19 15:06:00,74.0,53.7,30.10,SSW,202,6.0,11.0,49,0.00,,---,0.00,VWS V14.01,2013-09-19 19:06:00,
2013-09-19 15:11:00,74.0,52.5,30.10,SW,225,4.0,11.0,47,0.00,,---,0.00,VWS V14.01,2013-09-19 19:11:00,
2013-09-19 15:16:00,74.0,53.1,30.10,SW,225,3.0,11.0,48,0.00,,---,0.00,VWS V14.01,2013-09-19 19:16:00,
2013-09-19 15:21:00,74.0,53.1,30.10,WSW,248,5.0,5.0,48,0.00,,---,0.00,VWS V14.01,2013-09-19 19:21:00,
2013-09-19 15:26:00,74.0,54.2,30.10,SW,225,4.0,10.0,50,0.00,,---,0.00,VWS V14.01,2013-09-19 19:26:00,
2013-09-19 15:31:00,74.0,53.7,30.09,SW,225,5.0,11.0,49,0.00,,---,0.00,VWS V14.01,2013-09-19 19:31:00,
2013-09-19 15:36:00,74.0,53.1,30.09,South,180,2.0,11.0,48,0.00,,---,0.00,VWS V14.01,2013-09-19 19:36:00,
2013-09-19 15:42:00,75.0,54.0,30.09,SW,225,5.0,6.0,48,0.00,,---,0.00,VWS V14.01,2013-09-19 19:42:00,
2013-09-19 15:47:00,75.0,54.0,30.09,ENE,68,3.0,7.0,48,0.00,,---,0.00,VWS V14.01,2013-09-19 19:47:00,
2013-09-19 15:52:00,75.0,53.4,30.09,South,180,4.0,8.0,47,0.00,,---,0.00,VWS V14.01,2013-09-19 19:52:00,
2013-09-19 15:57:00,75.0,54.0,30.09,West,270,5.0,8.0,48,0.00,,---,0.00,VWS V14.01,2013-09-19 19:57:00,
2013-09-19 16:02:00,75.0,53.4,30.08,SW,225,6.0,11.0,47,0.00,,---,0.00,VWS V14.01,2013-09-19 20:02:00,
2013-09-19 16:07:00,75.0,53.4,30.09,SSW,202,3.0,11.0,47,0.00,,---,0.00,VWS V14.01,2013-09-19 20:07:00,
2013-09-19 16:12:00,75.0,53.4,30.09,SW,225,7.0,11.0,47,0.00,,---,0.00,VWS V14.01,2013-09-19 20:12:00,
2013-09-19 16:17:00,76.0,53.8,30.09,WSW,248,4.0,11.0,46,0.00,,---,0.00,VWS V14.01,2013-09-19 20:17:00,
2013-09-19 16:22:00,76.0,53.8,30.08,SW,225,5.0,6.0,46,0.00,,---,0.00,VWS V14.01,2013-09-19 20:22:00,
2013-09-19 16:28:00,76.0,53.8,30.08,SSE,158,1.0,6.0,46,0.00,,---,0.00,VWS V14.01,2013-09-19 20:28:00,
2013-09-19 16:33:00,76.0,53.2,30.08,SW,225,3.0,6.0,45,0.00,,---,0.00,VWS V14.01,2013-09-19 20:33:00,
2013-09-19 16:38:00,76.0,54.9,30.09,SSE,158,3.0,9.0,48,0.00,,---,0.00,VWS V14.01,2013-09-19 20:38:00,
2013-09-19 16:43:00,76.0,54.3,30.09,West,270,3.0,6.0,47,0.00,,---,0.00,VWS V14.01,2013-09-19 20:43:00,
2013-09-19 16:48:00,76.0,54.3,30.09,WSW,248,8.0,8.0,47,0.00,,---,0.00,VWS V14.01,2013-09-19 20:48:00,
2013-09-19 16:53:00,76.0,54.9,30.09,West,270,5.0,9.0,48,0.00,,---,0.00,VWS V14.01,2013-09-19 20:53:00,
2013-09-19 16:58:00,76.0,54.9,30.09,WSW,248,3.0,10.0,48,0.00,,---,0.00,VWS V14.01,2013-09-19 20:58:00,
2013-09-19 17:03:00,76.0,54.9,30.08,SSW,202,5.0,7.0,48,0.00,,---,0.00,VWS V14.01,2013-09-19 21:03:00,
2013-09-19 17:08:00,76.0,54.9,30.08,SW,225,4.0,7.0,48,0.00,,---,0.00,VWS V14.01,2013-09-19 21:08:00,
2013-09-19 17:13:00,76.0,54.3,30.08,SW,225,2.0,7.0,47,0.00,,---,0.00,VWS V14.01,2013-09-19 21:13:00,
2013-09-19 17:19:00,76.0,54.9,30.09,SSE,158,3.0,7.0,48,0.00,,---,0.00,VWS V14.01,2013-09-19 21:19:00,
2013-09-19 17:24:00,75.0,54.6,30.09,SW,225,5.0,7.0,49,0.00,,---,0.00,VWS V14.01,2013-09-19 21:24:00,
2013-09-19 17:29:00,75.0,54.6,30.09,SW,225,5.0,8.0,49,0.00,,---,0.00,VWS V14.01,2013-09-19 21:29:00,
2013-09-19 17:34:00,75.0,54.6,30.09,South,180,3.0,8.0,49,0.00,,---,0.00,VWS V14.01,2013-09-19 21:34:00,
2013-09-19 17:39:00,75.0,55.1,30.09,WSW,248,5.0,8.0,50,0.00,,---,0.00,VWS V14.01,2013-09-19 21:39:00,
2013-09-19 17:44:00,76.0,55.5,30.09,SSW,202,2.0,6.0,49,0.00,,---,0.00,VWS V14.01,2013-09-19 21:44:00,
2013-09-19 17:49:00,76.0,54.9,30.09,South,180,3.0,6.0,48,0.00,,---,0.00,VWS V14.01,2013-09-19 21:49:00,
2013-09-19 17:54:00,76.0,55.5,30.09,SW,225,5.0,6.0,49,0.00,,---,0.00,VWS V14.01,2013-09-19 21:54:00,
2013-09-19 17:59:00,75.0,54.0,30.09,SW,225,4.0,6.0,48,0.00,,---,0.00,VWS V14.01,2013-09-19 21:59:00,
2013-09-19 18:04:00,75.0,54.0,30.09,SW,225,2.0,6.0,48,0.00,,---,0.00,VWS V14.01,2013-09-19 22:04:00,
2013-09-19 18:10:00,74.0,53.1,30.09,SW,225,4.0,6.0,48,0.00,,---,0.00,VWS V14.01,2013-09-19 22:10:00,
2013-09-19 18:15:00,74.0,54.2,30.09,SSW,202,3.0,6.0,50,0.00,,---,0.00,VWS V14.01,2013-09-19 22:15:00,
2013-09-19 18:20:00,74.0,54.2,30.09,SW,225,3.0,4.0,50,0.00,,---,0.00,VWS V14.01,2013-09-19 22:20:00,
2013-09-19 18:25:00,73.0,54.4,30.09,South,180,3.0,4.0,52,0.00,,---,0.00,VWS V14.01,2013-09-19 22:25:00,
2013-09-19 18:30:00,73.0,54.9,30.09,SSW,202,2.0,4.0,53,0.00,,---,0.00,VWS V14.01,2013-09-19 22:30:00,
2013-09-19 18:35:00,72.0,54.5,30.09,SSW,202,3.0,4.0,54,0.00,,---,0.00,VWS V14.01,2013-09-19 22:35:00,
2013-09-19 18:40:00,72.0,56.0,30.09,South,180,1.0,2.0,57,0.00,,---,0.00,VWS V14.01,2013-09-19 22:40:00,
2013-09-19 18:45:00,72.0,56.0,30.09,South,180,3.0,3.0,57,0.00,,---,0.00,VWS V14.01,2013-09-19 22:45:00,
2013-09-19 18:50:00,71.0,56.0,30.09,SSW,202,3.0,3.0,59,0.00,,---,0.00,VWS V14.01,2013-09-19 22:50:00,
2013-09-19 18:56:00,71.0,56.9,30.09,South,180,3.0,4.0,61,0.00,,---,0.00,VWS V14.01,2013-09-19 22:56:00,
2013-09-19 19:01:00,70.0,56.8,30.09,SSW,202,3.0,4.0,63,0.00,,---,0.00,VWS V14.01,2013-09-19 23:01:00,
2013-09-19 19:06:00,69.0,56.8,30.09,South,180,3.0,4.0,65,0.00,,---,0.00,VWS V14.01,2013-09-19 23:06:00,
2013-09-19 19:11:00,69.0,56.8,30.09,South,180,5.0,5.0,65,0.00,,---,0.00,VWS V14.01,2013-09-19 23:11:00,
2013-09-19 19:16:00,68.0,56.2,30.09,South,180,3.0,5.0,66,0.00,,---,0.00,VWS V14.01,2013-09-19 23:16:00,
2013-09-19 19:22:00,68.0,57.1,30.09,South,180,3.0,4.0,68,0.00,,---,0.00,VWS V14.01,2013-09-19 23:22:00,
2013-09-19 19:27:00,67.0,56.5,30.09,SSW,202,4.0,5.0,69,0.00,,---,0.00,VWS V14.01,2013-09-19 23:27:00,
2013-09-19 19:32:00,67.0,56.5,30.09,South,180,3.0,5.0,69,0.00,,---,0.00,VWS V14.01,2013-09-19 23:32:00,
2013-09-19 19:37:00,66.0,55.5,30.08,South,180,5.0,6.0,69,0.00,,---,0.00,VWS V14.01,2013-09-19 23:37:00,
2013-09-19 19:42:00,66.0,55.5,30.08,SSE,158,3.0,5.0,69,0.00,,---,0.00,VWS V14.01,2013-09-19 23:42:00,
2013-09-19 19:47:00,66.0,55.5,30.08,SSE,158,2.0,5.0,69,0.00,,---,0.00,VWS V14.01,2013-09-19 23:47:00,
2013-09-19 19:52:00,66.0,56.0,30.09,South,180,1.0,5.0,70,0.00,,---,0.00,VWS V14.01,2013-09-19 23:52:00,
2013-09-19 19:57:00,65.0,55.4,30.09,SSE,158,1.0,5.0,71,0.00,,---,0.00,VWS V14.01,2013-09-19 23:57:00,
2013-09-19 20:02:00,65.0,55.8,30.08,SSW,202,2.0,2.0,72,0.00,,---,0.00,VWS V14.01,2013-09-20 00:02:00,
2013-09-19 20:07:00,64.0,55.6,30.08,SSE,158,3.0,4.0,74,0.00,,---,0.00,VWS V14.01,2013-09-20 00:07:00,
2013-09-19 20:12:00,64.0,55.6,30.09,SE,135,3.0,4.0,74,0.00,,---,0.00,VWS V14.01,2013-09-20 00:12:00,
2013-09-19 20:18:00,64.0,56.3,30.08,SSE,158,0.0,4.0,76,0.00,,---,0.00,VWS V14.01,2013-09-20 00:18:00,
2013-09-19 20:23:00,63.0,55.7,30.09,NNW,338,3.0,3.0,77,0.00,,---,0.00,VWS V14.01,2013-09-20 00:23:00,
2013-09-19 20:28:00,63.0,56.4,30.09,NNW,338,1.0,3.0,79,0.00,,---,0.00,VWS V14.01,2013-09-20 00:28:00,
2013-09-19 20:33:00,62.0,55.8,30.09,WNW,292,1.0,3.0,80,0.00,,---,0.00,VWS V14.01,2013-09-20 00:33:00,
2013-09-19 20:38:00,62.0,56.1,30.09,WNW,292,2.0,3.0,81,0.00,,---,0.00,VWS V14.01,2013-09-20 00:38:00,
2013-09-19 20:43:00,62.0,56.1,30.09,WNW,292,1.0,2.0,81,0.00,,---,0.00,VWS V14.01,2013-09-20 00:43:00,
2013-09-19 20:48:00,61.0,55.1,30.09,WNW,292,1.0,3.0,81,0.00,,---,0.00,VWS V14.01,2013-09-20 00:48:00,
2013-09-19 20:53:00,61.0,55.1,30.09,WNW,292,0.0,3.0,81,0.00,,---,0.00,VWS V14.01,2013-09-20 00:53:00,
2013-09-19 20:58:00,61.0,55.5,30.09,WNW,292,0.0,3.0,82,0.00,,---,0.00,VWS V14.01,2013-09-20 00:58:00,
2013-09-19 21:03:00,61.0,55.5,30.09,SSE,158,1.0,1.0,82,0.00,,---,0.00,VWS V14.01,2013-09-20 01:03:00,
2013-09-19 21:08:00,60.0,54.8,30.09,SSE,158,0.0,1.0,83,0.00,,---,0.00,VWS V14.01,2013-09-20 01:08:00,
2013-09-19 21:14:00,60.0,55.2,30.09,SSE,158,0.0,1.0,84,0.00,,---,0.00,VWS V14.01,2013-09-20 01:14:00,
2013-09-19 21:19:00,60.0,55.5,30.09,NNW,338,1.0,2.0,85,0.00,,---,0.00,VWS V14.01,2013-09-20 01:19:00,
2013-09-19 21:24:00,60.0,55.5,30.09,NNW,338,1.0,1.0,85,0.00,,---,0.00,VWS V14.01,2013-09-20 01:24:00,
2013-09-19 21:29:00,60.0,55.8,30.09,NNW,338,0.0,1.0,86,0.00,,---,0.00,VWS V14.01,2013-09-20 01:29:00,
2013-09-19 21:34:00,59.0,54.8,30.09,WNW,292,1.0,1.0,86,0.00,,---,0.00,VWS V14.01,2013-09-20 01:34:00,
2013-09-19 21:39:00,59.0,54.8,30.09,WNW,292,0.0,1.0,86,0.00,,---,0.00,VWS V14.01,2013-09-20 01:39:00,
2013-09-19 21:44:00,59.0,55.1,30.09,WNW,292,0.0,1.0,87,0.00,,---,0.00,VWS V14.01,2013-09-20 01:44:00,
2013-09-19 21:49:00,59.0,55.1,30.09,WNW,292,0.0,1.0,87,0.00,,---,0.00,VWS V14.01,2013-09-20 01:49:00,
2013-09-19 21:54:00,59.0,55.5,30.09,WNW,292,1.0,1.0,88,0.00,,---,0.00,VWS V14.01,2013-09-20 01:54:00,
2013-09-19 21:59:00,59.0,55.5,30.09,WNW,292,0.0,1.0,88,0.00,,---,0.00,VWS V14.01,2013-09-20 01:59:00,
2013-09-19 22:04:00,58.0,54.5,30.08,WNW,292,0.0,1.0,88,0.00,,---,0.00,VWS V14.01,2013-09-20 02:04:00,
2013-09-19 22:10:00,58.0,54.5,30.08,WNW,292,0.0,1.0,88,0.00,,---,0.00,VWS V14.01,2013-09-20 02:10:00,
2013-09-19 22:15:00,58.0,54.8,30.08,WNW,292,0.0,1.0,89,0.00,,---,0.00,VWS V14.01,2013-09-20 02:15:00,
2013-09-19 22:20:00,58.0,54.8,30.08,East,90,1.0,1.0,89,0.00,,---,0.00,VWS V14.01,2013-09-20 02:20:00,
2013-09-19 22:25:00,58.0,54.8,30.08,ENE,68,0.0,1.0,89,0.00,,---,0.00,VWS V14.01,2013-09-20 02:25:00,
2013-09-19 22:30:00,58.0,55.1,30.08,ENE,68,0.0,1.0,90,0.00,,---,0.00,VWS V14.01,2013-09-20 02:30:00,
2013-09-19 22:35:00,57.0,54.1,30.07,ENE,68,0.0,1.0,90,0.00,,---,0.00,VWS V14.01,2013-09-20 02:35:00,
2013-09-19 22:40:00,57.0,54.1,30.07,South,180,1.0,3.0,90,0.00,,---,0.00,VWS V14.01,2013-09-20 02:40:00,
2013-09-19 22:45:00,57.0,54.4,30.07,SW,225,1.0,3.0,91,0.00,,---,0.00,VWS V14.01,2013-09-20 02:45:00,
2013-09-19 22:51:00,57.0,54.4,30.08,SW,225,0.0,3.0,91,0.00,,---,0.00,VWS V14.01,2013-09-20 02:51:00,
2013-09-19 22:56:00,57.0,54.4,30.07,WNW,292,1.0,3.0,91,0.00,,---,0.00,VWS V14.01,2013-09-20 02:56:00,
2013-09-19 23:01:00,57.0,54.7,30.08,WNW,292,0.0,1.0,92,0.00,,---,0.00,VWS V14.01,2013-09-20 03:01:00,
2013-09-19 23:06:00,57.0,54.7,30.08,SSW,202,1.0,1.0,92,0.00,,---,0.00,VWS V14.01,2013-09-20 03:06:00,
2013-09-19 23:11:00,57.0,54.7,30.08,NW,315,0.0,1.0,92,0.00,,---,0.00,VWS V14.01,2013-09-20 03:11:00,
2013-09-19 23:16:00,57.0,55.0,30.08,WNW,292,1.0,2.0,93,0.00,,---,0.00,VWS V14.01,2013-09-20 03:16:00,
2013-09-19 23:21:00,57.0,55.0,30.08,NNW,338,0.0,1.0,93,0.00,,---,0.00,VWS V14.01,2013-09-20 03:21:00,
2013-09-19 23:26:00,57.0,55.0,30.08,NNW,338,0.0,1.0,93,0.00,,---,0.00,VWS V14.01,2013-09-20 03:26:00,
2013-09-19 23:31:00,57.0,55.0,30.08,North,0,1.0,1.0,93,0.00,,---,0.00,VWS V14.01,2013-09-20 03:31:00,
2013-09-19 23:36:00,56.0,54.0,30.08,ESE,112,1.0,3.0,93,0.00,,---,0.00,VWS V14.01,2013-09-20 03:36:00,
2013-09-19 23:41:00,57.0,55.3,30.08,SE,135,3.0,3.0,94,0.00,,---,0.00,VWS V14.01,2013-09-20 03:41:00,
2013-09-19 23:46:00,56.0,54.3,30.08,SE,135,0.0,3.0,94,0.00,,---,0.00,VWS V14.01,2013-09-20 03:46:00,
2013-09-19 23:51:00,56.0,54.3,30.08,ESE,112,1.0,3.0,94,0.00,,---,0.00,VWS V14.01,2013-09-20 03:51:00,
2013-09-19 23:57:00,56.0,54.3,30.08,East,90,0.0,3.0,94,0.00,,---,0.00,VWS V14.01,2013-09-20 03:57:00,